Wind_Speed
19 20 21 21 23 25 25 26 27 27 29 30 30 30 30 32 34 34 35 37 37 37 36 36 37 38 38 38 37 38 39 39 39 39 39 38 38 37 37 37 37 38 38 39
18 20 21 21 22 23 24 25 26 26 27 29 29 30 30 31 32 33 34 36 37 37 37 36 36 37 38 39 38 39 39 40 40 40 40 40 39 38 39 40 40 39 39 40
18 18 19 21 22 24 23 23 25 26 27 27 29 30 29 29 31 32 33 35 36 36 37 37 36 36 36 37 38 39 40 40 41 41 41 41 41 41 41 41 41 40 41 41
17 17 18 19 22 23 23 22 24 25 26 27 28 29 28 28 29 29 31 34 35 35 35 36 36 36 36 36 38 39 40 41 41 42 42 42 42 42 42 42 42 42 41 41
17 17 18 19 21 22 22 22 23 25 26 27 28 29 28 27 28 29 29 31 32 33 34 36 36 36 36 36 37 38 39 41 42 43 43 43 43 43 43 43 44 43 43 42
15 16 17 18 20 21 21 23 24 25 26 26 26 28 27 27 27 29 29 30 31 32 34 35 36 36 36 37 38 38 39 41 42 44 44 45 45 45 45 45 45 45 45 44
14 15 16 18 19 19 19 21 22 24 25 26 26 27 27 27 27 29 30 31 32 32 33 35 36 37 37 38 38 39 39 40 42 44 45 46 46 46 47 47 47 47 46 46
14 14 15 16 18 19 19 19 20 22 23 24 25 27 26 28 29 30 31 31 33 34 34 35 36 37 37 38 39 40 40 40 42 43 46 47 48 48 48 48 48 48 47 47
14 13 14 15 16 17 19 19 20 22 23 23 24 24 25 27 28 30 30 31 32 34 34 36 37 38 38 39 40 41 42 42 43 43 45 47 49 49 49 50 49 49 48 47
14 13 12 14 15 16 17 19 20 22 23 23 24 23 23 25 28 30 30 30 31 33 34 35 37 38 39 40 40 42 43 43 44 45 45 46 48 51 51 50 49 49 48 47
15 14 13 13 14 15 17 19 20 22 23 24 25 23 22 23 25 27 28 29 30 31 33 34 35 36 39 40 41 42 43 44 45 46 47 47 47 49 50 51 50 50 49 48
16 16 15 15 15 16 17 18 20 22 23 24 25 24 23 24 24 25 26 26 28 30 31 32 34 35 37 39 41 43 44 46 47 47 47 48 48 48 48 49 50 50 48 48
16 17 17 16 16 17 17 18 20 22 23 23 24 23 24 25 25 25 27 27 27 29 31 32 34 35 37 39 41 42 44 46 47 47 46 47 47 46 46 46 47 48 48 48
18 17 17 18 18 18 18 18 19 21 22 23 22 22 23 26 26 26 27 28 29 30 31 33 36 37 38 38 39 41 42 43 43 44 44 45 45 45 46 45 45 45 46 47
19 19 19 19 19 20 19 19 21 21 22 23 22 23 24 27 28 28 28 29 30 31 32 33 35 37 38 39 40 41 40 41 41 42 43 43 44 44 44 44 45 45 45 46
20 20 20 19 19 20 20 20 21 22 22 23 24 23 25 26 28 30 30 30 30 31 32 33 35 36 36 37 38 39 39 39 40 41 42 42 43 44 43 43 43 44 45 45
20 21 21 21 21 21 21 20 21 23 24 25 26 26 27 28 29 30 31 32 32 31 32 33 34 35 35 36 36 36 37 38 39 40 41 41 42 42 43 43 42 43 44 44
21 21 22 22 22 22 22 22 23 24 25 26 27 27 29 30 31 31 32 33 33 33 32 32 33 34 35 35 35 36 37 38 38 38 39 40 40 41 42 42 43 42 42 43
22 22 23 23 23 23 22 23 24 25 25 26 28 29 30 31 31 32 32 33 33 34 33 33 33 34 34 34 35 36 36 37 37 37 37 37 37 39 39 40 42 42 42 41
22 23 23 24 24 24 23 24 25 26 27 28 29 30 31 31 31 30 31 32 32 33 33 32 33 33 33 34 35 35 35 34 34 34 33 34 35 36 37 38 39 39 40 39
22 22 23 24 24 24 23 24 25 27 28 29 30 31 31 30 30 30 30 31 32 32 32 31 32 32 33 33 34 33 33 33 32 32 32 33 34 35 36 36 36 37 36 36
21 21 22 23 23 23 23 24 25 27 28 28 29 29 30 30 30 31 31 31 31 31 31 32 32 33 33 33 34 34 34 34 33 33 32 32 33 34 35 35 34 34 35 35
22 22 23 23 23 24 25 25 26 28 28 29 30 30 30 30 30 31 31 31 31 30 31 31 31 31 32 33 33 34 34 33 33 32 32 33 33 34 34 34 34 33 34 34
23 24 25 25 24 25 26 27 28 29 29 30 30 30 30 30 30 30 30 30 29 30 30 30 30 30 30 31 31 31 31 31 31 31 31 31 32 32 32 32 32 33 33 33
25 26 26 26 25 26 27 28 29 30 31 31 30 30 30 30 30 30 29 29 29 29 29 29 29 29 29 31 30 30 30 29 29 29 29 29 29 29 30 30 30 31 32 33
25 27 27 27 28 29 29 29 30 30 31 32 32 31 30 30 29 29 29 29 29 29 29 29 29 29 30 30 30 29 28 28 28 28 28 28 28 27 27 28 28 29 30 30
Wind_Direction
260 253 247 248 248 246 245 244 241 239 239 239 239 238 239 239 240 242 241 240 241 242 243 243 244 244 245 245 246 247 248 250 252 253 254 256 258 260 260 260 259 258 259 260
262 254 249 249 248 247 246 243 241 240 240 241 241 241 243 243 244 244 243 241 241 240 242 243 244 245 245 246 247 248 250 251 253 255 255 257 257 259 260 259 258 259 260 261
263 256 253 251 249 248 247 245 242 241 242 243 244 243 245 245 246 246 244 242 241 240 241 243 246 247 247 248 248 249 250 252 254 255 255 257 257 259 260 261 261 260 261 262
262 257 254 253 253 249 248 248 244 244 244 246 246 247 244 246 245 246 246 243 243 242 244 246 246 247 249 251 251 251 252 253 254 255 256 257 258 260 261 262 262 261 263 264
262 259 256 255 255 252 252 250 249 247 247 247 247 249 248 249 246 246 248 245 244 244 245 246 247 249 251 252 253 253 254 254 255 256 257 258 259 260 261 262 263 263 265 266
263 260 259 256 255 256 253 252 253 250 249 250 248 252 252 250 249 247 247 245 244 246 249 249 249 251 253 254 255 257 257 256 257 257 258 259 260 260 261 263 264 264 265 265
261 260 261 257 258 256 252 252 253 253 253 255 253 256 257 255 253 250 247 246 246 248 251 252 253 255 256 257 258 259 259 259 258 259 260 260 261 261 261 263 263 262 263 264
265 263 263 262 260 255 250 252 255 258 260 260 258 259 260 261 259 257 251 251 253 253 253 256 258 259 259 260 261 261 261 261 262 262 262 261 261 260 260 261 261 261 262 262
272 271 265 265 262 254 251 253 255 259 263 268 267 267 265 263 261 262 257 254 256 257 255 257 259 261 262 262 263 263 264 264 264 265 265 263 262 261 260 261 261 261 261 262
273 272 267 264 262 255 254 255 255 259 265 273 275 276 274 268 263 262 260 259 258 256 256 258 259 261 263 264 265 265 265 266 265 266 266 265 264 262 261 261 260 260 260 260
271 268 266 265 262 260 258 255 259 263 267 275 278 281 280 276 270 269 268 263 260 258 259 261 263 265 265 265 266 267 266 267 267 267 267 266 264 263 261 261 260 259 258 259
269 269 266 262 262 262 262 262 265 268 273 276 280 283 281 278 273 274 273 267 263 264 264 264 266 268 267 267 268 268 269 269 269 268 268 266 264 263 263 262 259 258 258 259
266 269 268 263 262 263 267 267 268 271 277 281 283 284 281 279 277 277 276 272 270 270 270 268 269 270 271 272 271 271 271 271 270 268 268 266 264 263 262 261 260 259 259 260
264 266 267 268 268 269 270 272 274 276 281 283 284 285 283 281 280 279 279 277 276 274 274 273 272 274 275 275 275 276 275 274 272 269 267 267 264 262 261 260 260 260 260 261
265 264 266 267 268 269 271 272 274 278 281 283 285 285 285 284 283 283 280 278 278 277 277 277 276 276 276 276 278 278 276 275 273 270 268 267 264 262 261 261 260 260 260 261
266 268 267 266 268 269 271 271 272 276 281 283 285 286 287 288 285 284 282 280 280 281 280 279 279 279 279 279 279 278 277 276 274 271 269 267 264 262 261 260 259 260 260 261
267 269 269 268 268 271 273 276 276 277 280 283 285 286 286 287 287 286 283 281 281 282 282 282 281 281 282 282 281 279 278 278 274 272 270 267 264 261 261 260 260 260 260 261
268 269 271 273 273 272 277 279 280 280 281 283 284 286 286 286 286 285 285 285 283 284 284 283 283 283 283 283 282 282 281 279 276 274 272 268 265 263 262 261 261 261 261 259
268 269 271 273 275 276 278 281 282 282 281 284 285 286 287 288 287 285 285 285 285 286 285 285 284 285 284 284 283 282 282 280 278 276 273 269 266 264 263 263 263 262 261 259
268 269 271 273 276 277 279 280 281 282 282 284 286 287 289 290 289 287 284 284 284 285 285 286 286 286 285 285 284 283 282 282 280 277 275 270 267 265 265 265 263 262 260 258
269 271 273 275 277 280 281 282 284 286 288 287 288 289 290 290 290 289 287 285 285 285 285 286 286 286 286 286 285 284 283 281 279 276 273 270 271 268 267 266 264 262 261 258
269 271 273 276 278 282 284 285 286 288 291 292 293 293 292 291 291 291 289 287 286 285 285 285 286 287 287 286 285 284 282 280 278 275 274 274 272 268 266 266 265 263 261 260
268 272 274 277 280 282 283 285 286 288 292 294 294 294 294 293 293 294 292 289 288 287 286 286 288 289 289 289 287 285 284 280 278 276 276 275 274 270 268 267 265 264 263 261
269 272 275 277 280 282 284 286 288 290 292 294 294 294 294 294 294 295 293 292 292 291 290 288 289 289 291 292 292 289 286 282 280 277 278 276 273 270 268 266 265 264 263 263
272 273 276 279 282 282 284 287 288 289 291 293 293 294 295 294 294 295 294 293 293 293 293 292 291 290 292 295 294 292 287 283 281 280 279 279 275 270 267 267 266 265 264 263
272 275 278 281 282 284 285 286 287 288 290 292 294 293 294 294 294 294 294 292 292 293 293 293 291 292 293 296 297 294 289 284 283 282 280 278 274 271 269 268 267 266 264 262
Height
5682 5684 5684 5686 5687 5688 5689 5692 5694 5697 5699 5701 5704 5707 5710 5712 5714 5716 5719 5723 5727 5731 5735 5738 5741 5744 5746 5749 5751 5754 5756 5759 5761 5763 5765 5767 5768 5769 5770 5770 5772 5773 5775 5775
5680 5680 5681 5681 5682 5683 5685 5687 5689 5692 5693 5696 5698 5701 5704 5705 5707 5709 5712 5714 5718 5723 5726 5730 5732 5735 5737 5740 5743 5745 5747 5749 5751 5753 5755 5757 5759 5760 5761 5761 5762 5764 5765 5766
5676 5677 5677 5678 5678 5679 5681 5683 5685 5687 5689 5691 5693 5696 5698 5699 5700 5702 5704 5707 5710 5715 5718 5722 5725 5727 5729 5731 5733 5736 5738 5740 5741 5743 5745 5747 5749 5750 5752 5752 5753 5754 5755 5756
5672 5673 5673 5674 5674 5675 5677 5678 5680 5682 5684 5685 5688 5689 5693 5693 5694 5696 5698 5700 5703 5707 5711 5713 5716 5718 5721 5722 5724 5726 5728 5730 5731 5733 5735 5737 5739 5741 5742 5742 5743 5743 5744 5745
5669 5670 5670 5671 5671 5672 5673 5674 5676 5678 5679 5681 5682 5683 5687 5688 5689 5690 5692 5694 5697 5700 5703 5705 5707 5710 5712 5713 5715 5716 5718 5719 5721 5723 5724 5726 5727 5729 5730 5731 5732 5732 5733 5734
5667 5666 5667 5667 5668 5668 5669 5670 5671 5672 5674 5675 5677 5677 5680 5682 5683 5685 5686 5688 5691 5693 5695 5696 5699 5701 5702 5704 5705 5706 5707 5709 5710 5711 5712 5714 5715 5717 5718 5720 5720 5721 5722 5723
5664 5663 5663 5664 5664 5665 5666 5667 5667 5667 5668 5670 5671 5672 5675 5677 5678 5679 5680 5682 5684 5685 5687 5689 5691 5692 5693 5695 5696 5696 5697 5698 5698 5699 5700 5702 5703 5704 5706 5707 5708 5709 5710 5711
5660 5661 5661 5661 5661 5661 5662 5663 5664 5664 5664 5665 5666 5667 5671 5671 5672 5672 5674 5675 5676 5677 5679 5681 5682 5684 5685 5685 5686 5686 5686 5686 5687 5687 5688 5689 5690 5691 5693 5694 5695 5696 5698 5699
5657 5658 5658 5658 5658 5659 5659 5660 5661 5661 5660 5661 5662 5663 5665 5665 5665 5665 5666 5668 5669 5670 5671 5673 5674 5675 5675 5675 5675 5675 5675 5675 5675 5675 5675 5676 5677 5678 5679 5680 5681 5683 5685 5687
5655 5655 5655 5655 5655 5656 5656 5657 5657 5657 5656 5656 5657 5658 5659 5659 5659 5660 5660 5660 5660 5662 5663 5664 5665 5665 5665 5665 5665 5664 5664 5664 5664 5663 5663 5663 5664 5665 5666 5667 5669 5670 5672 5674
5652 5653 5653 5652 5652 5652 5653 5654 5653 5653 5653 5653 5652 5656 5655 5653 5653 5653 5653 5653 5653 5654 5654 5655 5655 5655 5655 5654 5654 5653 5652 5652 5651 5651 5650 5650 5651 5651 5652 5654 5655 5657 5659 5661
5649 5649 5649 5649 5649 5649 5649 5650 5650 5650 5650 5648 5648 5653 5649 5648 5647 5646 5646 5646 5645 5645 5645 5646 5646 5645 5644 5643 5642 5641 5640 5639 5639 5638 5637 5637 5638 5638 5639 5641 5643 5644 5646 5648
5645 5645 5645 5646 5648 5647 5646 5646 5646 5645 5645 5644 5644 5648 5644 5643 5641 5641 5640 5639 5638 5638 5637 5636 5636 5634 5633 5632 5631 5629 5627 5626 5625 5624 5624 5624 5624 5625 5627 5628 5630 5632 5634 5636
5641 5641 5643 5643 5642 5642 5642 5642 5641 5640 5640 5640 5640 5640 5639 5637 5635 5635 5633 5632 5631 5630 5629 5627 5626 5625 5623 5621 5619 5617 5614 5612 5610 5610 5610 5610 5611 5613 5615 5616 5618 5620 5622 5623
5636 5637 5637 5638 5637 5637 5638 5638 5637 5636 5635 5635 5635 5634 5633 5631 5629 5628 5627 5625 5624 5622 5620 5618 5617 5615 5613 5610 5608 5605 5602 5600 5598 5598 5598 5598 5599 5600 5602 5604 5606 5608 5609 5611
5631 5632 5632 5633 5633 5632 5633 5633 5632 5631 5630 5630 5629 5629 5627 5625 5622 5621 5619 5617 5616 5614 5612 5610 5607 5605 5602 5600 5597 5594 5591 5589 5587 5586 5586 5586 5587 5588 5590 5592 5594 5596 5597 5599
5626 5627 5627 5628 5628 5627 5628 5629 5627 5626 5625 5624 5623 5623 5620 5618 5616 5613 5611 5609 5607 5605 5603 5601 5598 5596 5593 5590 5586 5583 5581 5578 5577 5576 5575 5575 5576 5577 5579 5580 5582 5583 5585 5587
5621 5621 5621 5621 5622 5622 5626 5623 5622 5620 5620 5618 5616 5614 5613 5611 5608 5606 5603 5601 5599 5597 5594 5592 5589 5586 5584 5581 5577 5574 5571 5568 5566 5565 5565 5564 5565 5566 5568 5569 5570 5572 5573 5575
5616 5616 5615 5615 5615 5616 5618 5617 5615 5613 5613 5611 5609 5607 5605 5602 5600 5598 5595 5593 5590 5588 5586 5583 5580 5578 5575 5572 5569 5565 5562 5559 5557 5556 5555 5555 5555 5557 5558 5559 5560 5560 5562 5564
5610 5610 5611 5610 5609 5609 5612 5610 5607 5607 5606 5604 5602 5599 5597 5594 5593 5591 5587 5585 5582 5580 5577 5574 5572 5569 5566 5563 5560 5557 5554 5551 5549 5548 5547 5547 5547 5548 5548 5549 5549 5550 5551 5553
5604 5604 5604 5604 5602 5604 5605 5603 5601 5601 5600 5596 5594 5591 5589 5586 5584 5582 5579 5576 5573 5571 5568 5566 5563 5560 5558 5555 5552 5549 5546 5544 5542 5541 5540 5539 5539 5538 5539 5539 5540 5541 5542 5544
5599 5599 5598 5598 5597 5600 5598 5596 5595 5593 5591 5588 5586 5583 5581 5578 5575 5573 5570 5567 5565 5563 5560 5557 5555 5552 5549 5546 5544 5541 5538 5536 5534 5533 5532 5531 5530 5529 5529 5529 5530 5531 5533 5535
5593 5594 5592 5593 5594 5592 5590 5589 5587 5585 5583 5581 5578 5576 5573 5570 5568 5565 5562 5559 5557 5554 5551 5549 5547 5544 5541 5538 5535 5532 5530 5527 5525 5524 5523 5522 5521 5521 5521 5521 5522 5523 5524 5526
5587 5586 5586 5586 5586 5585 5583 5581 5579 5577 5575 5573 5570 5568 5565 5562 5559 5557 5554 5551 5549 5546 5544 5541 5538 5536 5533 5530 5527 5524 5521 5519 5517 5516 5514 5513 5512 5512 5512 5513 5514 5515 5516 5517
5580 5579 5578 5578 5579 5577 5576 5573 5572 5569 5567 5565 5562 5559 5557 5554 5551 5548 5546 5543 5541 5538 5536 5533 5530 5528 5525 5522 5518 5515 5513 5511 5509 5508 5506 5505 5504 5504 5504 5504 5505 5506 5507 5508
5573 5572 5571 5571 5570 5568 5568 5565 5563 5561 5559 5557 5554 5551 5548 5545 5543 5540 5538 5535 5533 5530 5528 5525 5522 5520 5517 5514 5511 5507 5505 5503 5501 5500 5499 5498 5497 5496 5496 5496 5497 5497 5499 5500